Weather History for Lamar, CO

Change the Weather History Date:

Saturday, April 14, 2012

  Actual Average Record
Temperature  
Mean Temperature 61 °F 52 °F  
Max Temperature 80 °F 69 °F 91 °F (2002)
Min Temperature 41 °F 35 °F 16 °F (1928)
Degree Days  
Heating Degree Days 4 14  
Month to date heating degree days 137 216  
Since 1 July heating degree days 4753 5225  
Cooling Degree Days 0 0  
Month to date cooling degree days 2 0  
Year to date cooling degree days 7 0  
Growing Degree Days 11 (Base 50)    
Moisture  
Dew Point 33 °F    
Average Humidity 55    
Maximum Humidity 100    
Minimum Humidity 9    
Precipitation  
Precipitation 0.00 in 0.04 in 0.96 in (1921)
Month to date precipitation 0.96 0.45  
Year to date precipitation 1.60 1.96  
Snow  
Snow 0.00 in - - ()
Month to date snowfall 0.0  
Snow Depth 0.00 in    
Sea Level Pressure  
Sea Level Pressure 29.42 in    
Wind  
Wind Speed 17 mph (SW)    
Max Wind Speed 49 mph    
Max Gust Speed 60 mph    
Visibility 9 miles    
Events      
T = Trace of Precipitation, MM = Missing Value Source: NWS Daily Summary

Daily Weather History Graph

Daily Weather History Graph

Search for Another Location

Airport:

Trip Planner

Search our weather history database for the weather conditions in past years. The results will help you decide how hot, cold, wet, or windy it might be!

Date:

Astronomy

Apr. 14, 2012 Rise Set
Actual Time 6:15 AM MDT 7:26 PM MDT
Civil Twilight 5:48 AM MDT 7:53 PM MDT
Nautical Twilight 5:16 AM MDT 8:26 PM MDT
Astronomical Twilight 4:42 AM MDT 9:00 PM MDT
Moon 2:34 AM MDT (4/14) 1:27 PM MDT (4/14)
Length of Visible Light 14h 04m
Length of Day
13h 10m
Last Quarter, 36% of the Moon is Illuminated
Apr 14
Last Quarter
Apr 21
New
Apr 29
First Quarter
May 5
Full
May 12
Last Quarter

Hourly Weather History & Observations

Time (MDT) Temp. Windchill Dew Point Humidity Pressure Visibility Wind Dir Wind Speed Gust Speed Precip Events Conditions
12:53 AM 52.0 °F - 39.9 °F 63% 29.54 in 10.0 mi SSE 20.7 mph 27.6 mph N/A   Clear
1:53 AM 51.1 °F - 45.0 °F 80% 29.51 in 10.0 mi SSE 20.7 mph 28.8 mph N/A   Partly Cloudy
2:47 AM 51.8 °F - 50.0 °F 94% 29.58 in 8.0 mi SSE 20.7 mph 29.9 mph N/A   Mostly Cloudy
2:53 AM 52.0 °F - 51.1 °F 97% 29.48 in 7.0 mi SSE 18.4 mph 27.6 mph N/A   Mostly Cloudy
3:17 AM 51.8 °F - 50.0 °F 94% 29.58 in 6.0 mi SE 17.3 mph - N/A   Scattered Clouds
3:53 AM 51.1 °F - 48.9 °F 92% 29.48 in 8.0 mi SSE 19.6 mph 26.5 mph N/A   Clear
4:31 AM 50.0 °F - 48.2 °F 94% 29.59 in 6.0 mi WSW 11.5 mph - N/A   Scattered Clouds
4:44 AM 48.2 °F - 48.2 °F 100% 29.59 in 7.0 mi SW 9.2 mph - N/A   Mostly Cloudy
4:53 AM 48.9 °F - 46.0 °F 90% 29.49 in 8.0 mi SW 6.9 mph - N/A   Scattered Clouds
5:53 AM 44.1 °F 39.5 °F 39.9 °F 85% 29.50 in 10.0 mi SW 8.1 mph - N/A   Clear
6:53 AM 42.1 °F 39.2 °F 37.0 °F 82% 29.53 in 10.0 mi SW 4.6 mph - N/A   Clear
7:53 AM 48.0 °F - 37.0 °F 66% 29.52 in 10.0 mi Calm Calm - N/A   Clear
8:53 AM 54.0 °F - 33.1 °F 45% 29.49 in 10.0 mi West 6.9 mph - N/A   Clear
9:53 AM 57.9 °F - 33.1 °F 39% 29.47 in 10.0 mi Calm Calm - N/A   Clear
10:53 AM 66.0 °F - 33.1 °F 29% 29.43 in 10.0 mi WSW 8.1 mph - N/A   Clear
11:53 AM 70.0 °F - 28.9 °F 22% 29.37 in 10.0 mi WSW 6.9 mph - N/A   Clear
12:53 PM 73.9 °F - 28.0 °F 18% 29.31 in 10.0 mi Variable 5.8 mph - N/A   Clear
1:53 PM 78.1 °F - 23.0 °F 13% 29.28 in 10.0 mi SSW 29.9 mph 41.4 mph N/A   Clear
2:53 PM 78.1 °F - 19.0 °F 11% 29.25 in 10.0 mi SSW 35.7 mph 51.8 mph N/A   Clear
3:53 PM 80.1 °F - 21.0 °F 11% 29.19 in 10.0 mi SSW 40.3 mph 51.8 mph N/A   Clear
4:53 PM 78.1 °F - 16.0 °F 10% 29.20 in 10.0 mi SSW 43.7 mph 55.2 mph N/A   Clear
5:53 PM 75.0 °F - 17.1 °F 11% 29.24 in 10.0 mi SW 39.1 mph 48.3 mph N/A   Clear
6:53 PM 70.0 °F - 16.0 °F 13% 29.30 in 10.0 mi SW 31.1 mph 41.4 mph N/A   Scattered Clouds
7:11 PM 64.4 °F - 28.4 °F 26% 29.40 in 10.0 mi West 16.1 mph 27.6 mph N/A   Partly Cloudy
7:53 PM 63.0 °F - 24.1 °F 23% 29.35 in 10.0 mi West 24.2 mph 31.1 mph N/A   Clear
8:53 PM 57.9 °F - 28.9 °F 33% 29.38 in 10.0 mi West 11.5 mph - N/A   Clear
9:53 PM 55.0 °F - 28.0 °F 35% 29.40 in 10.0 mi West 18.4 mph - N/A   Scattered Clouds
10:53 PM 51.1 °F - 25.0 °F 36% 29.37 in 10.0 mi WSW 16.1 mph - N/A   Clear
11:53 PM 46.0 °F 40.2 °F 24.1 °F 42% 29.38 in 10.0 mi WNW 12.7 mph - N/A   Clear